Flag for U.S.A. Weather past 2 weeks in Canton, Ohio, U.S.A.

Now
51 °F

Clear.


Feels Like: 51 °F
Forecast: 45 / 67 °F
Wind: No wind

Location: Akron-Canton Regional Airport

Current Time: Sep 17, 2014 at 2:15:37 AM

Latest Report: Sep 17, 2014 at 1:51 AM


Visibility: 10 mi

Pressure: 30.09 "Hg

Humidity: 83%

Dew point: 46 °F

Location of CantonLocation

Historic Weather in Canton — Graph

°F

Canton temperature yesterday

Maximum temperature yesterday: 67 °F (at 5:51 PM)
Minimum temperature yesterday: 53 °F (at 4:51 AM)
Average temperature yesterday: 58 °F

Past Weeks' High & Low Weather Summary

 TemperatureHumidityPressure
High87 °F (Sep 5, 2:51 PM)93% (Sep 3, 4:51 AM)30.36 "Hg (Sep 3, 4:51 AM)
Low43 °F (Sep 14, 5:51 AM)38% (Sep 3, 3:51 PM)29.70 "Hg (Sep 11, 2:51 AM)
Average66 °F73%30.08 "Hg
* Reported Sep 2 12:51 AM — Sep 17 12:51 AM, Canton, Weather by CustomWeather, © 2014

Note: Actual official high and low records may vary slightly from our data, if they occured in-between our weather recording intervals... More about our weather records

Advertising

Canton weather history for previous 24 hours

 ConditionsComfort  
Time TempWeatherWind HumidityBarometerVisibility
12:51 AM
Sep 17
51 °FClear.No wind80%30.09 "Hg10 mi
11:51 PM
Sep 16
53 °FPassing clouds.3 mph80%30.09 "Hg10 mi
10:51 PM54 °FPassing clouds.5 mph80%30.09 "Hg10 mi
9:51 PM54 °FPassing clouds.5 mph80%30.10 "Hg10 mi
8:51 PM57 °FPassing clouds.8 mph72%30.09 "Hg10 mi
7:51 PM58 °FScattered clouds.7 mph72%30.08 "Hg10 mi
6:51 PM62 °FScattered clouds.6 mph65%30.07 "Hg10 mi
5:51 PM67 °FScattered clouds.3 mph53%30.07 "Hg10 mi
4:51 PM66 °FScattered clouds.7 mph52%30.07 "Hg10 mi
3:51 PM66 °FPartly sunny.5 mph56%30.08 "Hg10 mi
2:51 PM63 °FPartly sunny.7 mph65%30.09 "Hg10 mi
1:51 PM65 °FPartly sunny.7 mph63%30.10 "Hg10 mi
12:51 PM63 °FPartly sunny.6 mph65%30.11 "Hg7 mi
11:51 AM61 °FPartly sunny.3 mph72%30.12 "Hg5 mi
10:51 AM59 °FMostly cloudy.6 mph84%30.14 "Hg3 mi
9:51 AM56 °FFog.No wind87%30.14 "Hg2 mi
8:51 AM55 °FFog.8 mph90%30.13 "Hg1 mi
7:51 AM53 °FFog.5 mph89%30.12 "Hg1 mi
6:51 AM54 °FFog.No wind86%30.09 "Hg3 mi
5:51 AM53 °FFog.7 mph89%30.09 "Hg4 mi
4:51 AM53 °FFog.3 mph89%30.08 "Hg4 mi
3:51 AM54 °FLight rain. Fog.8 mph90%30.07 "Hg2 mi
2:51 AM57 °FMostly cloudy.7 mph87%30.06 "Hg8 mi
Weather by CustomWeather, © 2014

See weather overviewHow to use our weather pages